owner,sensor,date,latitude,longitude,air_temperature,qcFlag 
DISL,ioos:station:DISL:PPTA:1,2017-06-01T00:00:00Z,30.2791,-87.5561,23.15,1111122 
DISL,ioos:station:DISL:PPTA:1,2017-06-01T00:30:00Z,30.2791,-87.5561,23.08,1111122 
DISL,ioos:station:DISL:PPTA:1,2017-06-01T01:00:00Z,30.2791,-87.5561,23.39,1111122 
DISL,ioos:station:DISL:PPTA:1,2017-06-01T01:30:00Z,30.2791,-87.5561,24.31,1111122 
DISL,ioos:station:DISL:PPTA:1,2017-06-01T02:00:00Z,30.2791,-87.5561,24.34,1111122 
DISL,ioos:station:DISL:PPTA:1,2017-06-01T02:30:00Z,30.2791,-87.5561,24.27,1111122 
DISL,ioos:station:DISL:PPTA:1,2017-06-01T03:00:00Z,30.2791,-87.5561,23.41,1111122 
DISL,ioos:station:DISL:PPTA:1,2017-06-01T03:30:00Z,30.2791,-87.5561,23.59,1111122 
DISL,ioos:station:DISL:PPTA:1,2017-06-01T04:00:00Z,30.2791,-87.5561,23.65,1111122 
DISL,ioos:station:DISL:PPTA:1,2017-06-01T04:30:00Z,30.2791,-87.5561,23.89,1111122 
DISL,ioos:station:DISL:PPTA:1,2017-06-01T05:00:00Z,30.2791,-87.5561,23.51,1111122 
DISL,ioos:station:DISL:PPTA:1,2017-06-01T05:30:00Z,30.2791,-87.5561,23.44,1111122 
DISL,ioos:station:DISL:PPTA:1,2017-06-01T06:00:00Z,30.2791,-87.5561,23.78,1111122 
DISL,ioos:station:DISL:PPTA:1,2017-06-01T06:30:00Z,30.2791,-87.5561,23.71,1111122 
DISL,ioos:station:DISL:PPTA:1,2017-06-01T07:00:00Z,30.2791,-87.5561,23.64,1111122 
DISL,ioos:station:DISL:PPTA:1,2017-06-01T07:30:00Z,30.2791,-87.5561,23.71,1111122 
DISL,ioos:station:DISL:PPTA:1,2017-06-01T08:00:00Z,30.2791,-87.5561,23.71,1111122 
DISL,ioos:station:DISL:PPTA:1,2017-06-01T08:30:00Z,30.2791,-87.5561,23.58,1111122 
DISL,ioos:station:DISL:PPTA:1,2017-06-01T09:00:00Z,30.2791,-87.5561,23.44,1111122 
DISL,ioos:station:DISL:PPTA:1,2017-06-01T09:30:00Z,30.2791,-87.5561,23.51,1111122 
DISL,ioos:station:DISL:PPTA:1,2017-06-01T10:00:00Z,30.2791,-87.5561,23.92,1111122 
DISL,ioos:station:DISL:PPTA:1,2017-06-01T10:30:00Z,30.2791,-87.5561,23.98,1111122 
DISL,ioos:station:DISL:PPTA:1,2017-06-01T11:00:00Z,30.2791,-87.5561,24.22,1111122 
DISL,ioos:station:DISL:PPTA:1,2017-06-01T11:30:00Z,30.2791,-87.5561,24.43,1111122 
DISL,ioos:station:DISL:PPTA:1,2017-06-01T12:00:00Z,30.2791,-87.5561,24.67,1111122 
DISL,ioos:station:DISL:PPTA:1,2017-06-01T12:30:00Z,30.2791,-87.5561,24.6,1111122 
DISL,ioos:station:DISL:PPTA:1,2017-06-01T13:00:00Z,30.2791,-87.5561,25.25,1111122 
DISL,ioos:station:DISL:PPTA:1,2017-06-01T13:30:00Z,30.2791,-87.5561,25.21,1111122 
DISL,ioos:station:DISL:PPTA:1,2017-06-01T14:00:00Z,30.2791,-87.5561,24.46,1111122 
DISL,ioos:station:DISL:PPTA:1,2017-06-01T14:30:00Z,30.2791,-87.5561,21.77,1111122 
DISL,ioos:station:DISL:PPTA:1,2017-06-01T15:00:00Z,30.2791,-87.5561,21.4,1111122 
DISL,ioos:station:DISL:PPTA:1,2017-06-01T15:30:00Z,30.2791,-87.5561,22.71,1111122 
DISL,ioos:station:DISL:PPTA:1,2017-06-01T16:00:00Z,30.2791,-87.5561,23.15,1111122 
DISL,ioos:station:DISL:PPTA:1,2017-06-01T16:30:00Z,30.2791,-87.5561,24.13,1111122 
DISL,ioos:station:DISL:PPTA:1,2017-06-01T17:00:00Z,30.2791,-87.5561,24.02,1111122 
DISL,ioos:station:DISL:PPTA:1,2017-06-01T17:30:00Z,30.2791,-87.5561,24.53,1111122 
DISL,ioos:station:DISL:PPTA:1,2017-06-01T18:00:00Z,30.2791,-87.5561,24.9,1111122 
DISL,ioos:station:DISL:PPTA:1,2017-06-01T18:30:00Z,30.2791,-87.5561,25.93,1111122 
DISL,ioos:station:DISL:PPTA:1,2017-06-01T19:00:00Z,30.2791,-87.5561,26.42,1111122 
DISL,ioos:station:DISL:PPTA:1,2017-06-01T19:30:00Z,30.2791,-87.5561,25.02,1111122 
DISL,ioos:station:DISL:PPTA:1,2017-06-01T20:00:00Z,30.2791,-87.5561,25.39,1111122 
DISL,ioos:station:DISL:PPTA:1,2017-06-01T20:30:00Z,30.2791,-87.5561,25.84,1111122 
DISL,ioos:station:DISL:PPTA:1,2017-06-01T21:00:00Z,30.2791,-87.5561,26.18,1111122 
DISL,ioos:station:DISL:PPTA:1,2017-06-01T21:30:00Z,30.2791,-87.5561,25.94,1111122 
DISL,ioos:station:DISL:PPTA:1,2017-06-01T22:00:00Z,30.2791,-87.5561,26.01,1111122 
DISL,ioos:station:DISL:PPTA:1,2017-06-01T22:30:00Z,30.2791,-87.5561,26.07,1111122 
DISL,ioos:station:DISL:PPTA:1,2017-06-01T23:00:00Z,30.2791,-87.5561,25.97,1111122 
DISL,ioos:station:DISL:PPTA:1,2017-06-01T23:30:00Z,30.2791,-87.5561,26.11,1111122 
DISL,ioos:station:DISL:PPTA:1,2017-06-02T00:00:00Z,30.2791,-87.5561,25.77,1111122 
DISL,ioos:station:DISL:PPTA:1,2017-06-02T00:30:00Z,30.2791,-87.5561,25.73,1111122 
DISL,ioos:station:DISL:PPTA:1,2017-06-02T01:00:00Z,30.2791,-87.5561,25.63,1111122 
DISL,ioos:station:DISL:PPTA:1,2017-06-02T01:30:00Z,30.2791,-87.5561,25.22,1111122 
DISL,ioos:station:DISL:PPTA:1,2017-06-02T02:00:00Z,30.2791,-87.5561,24.99,1111122 
DISL,ioos:station:DISL:PPTA:1,2017-06-02T02:30:00Z,30.2791,-87.5561,24.77,1111122 
DISL,ioos:station:DISL:PPTA:1,2017-06-02T03:00:00Z,30.2791,-87.5561,24.73,1111122 
DISL,ioos:station:DISL:PPTA:1,2017-06-02T03:30:00Z,30.2791,-87.5561,24.73,1111122 
DISL,ioos:station:DISL:PPTA:1,2017-06-02T04:00:00Z,30.2791,-87.5561,24.73,1111122 
DISL,ioos:station:DISL:PPTA:1,2017-06-02T04:30:00Z,30.2791,-87.5561,25.14,1111122 
DISL,ioos:station:DISL:PPTA:1,2017-06-02T05:00:00Z,30.2791,-87.5561,25.42,1111122 
DISL,ioos:station:DISL:PPTA:1,2017-06-02T05:30:00Z,30.2791,-87.5561,25.25,1111122 
DISL,ioos:station:DISL:PPTA:1,2017-06-02T06:00:00Z,30.2791,-87.5561,25.38,1111122 
DISL,ioos:station:DISL:PPTA:1,2017-06-02T06:30:00Z,30.2791,-87.5561,25.35,1111122 
DISL,ioos:station:DISL:PPTA:1,2017-06-02T07:00:00Z,30.2791,-87.5561,25.38,1111122 
DISL,ioos:station:DISL:PPTA:1,2017-06-02T07:30:00Z,30.2791,-87.5561,25.38,1111122 
DISL,ioos:station:DISL:PPTA:1,2017-06-02T08:00:00Z,30.2791,-87.5561,25.42,1111122 
DISL,ioos:station:DISL:PPTA:1,2017-06-02T08:30:00Z,30.2791,-87.5561,25.31,1111122 
DISL,ioos:station:DISL:PPTA:1,2017-06-02T09:00:00Z,30.2791,-87.5561,25.14,1111122 
DISL,ioos:station:DISL:PPTA:1,2017-06-02T09:30:00Z,30.2791,-87.5561,25.28,1111122 
DISL,ioos:station:DISL:PPTA:1,2017-06-02T10:00:00Z,30.2791,-87.5561,25.28,1111122 
DISL,ioos:station:DISL:PPTA:1,2017-06-02T10:30:00Z,30.2791,-87.5561,25.14,1111122 
DISL,ioos:station:DISL:PPTA:1,2017-06-02T11:00:00Z,30.2791,-87.5561,25.21,1111122 
DISL,ioos:station:DISL:PPTA:1,2017-06-02T11:30:00Z,30.2791,-87.5561,25.42,1111122 
DISL,ioos:station:DISL:PPTA:1,2017-06-02T12:00:00Z,30.2791,-87.5561,24.9,1111122 
DISL,ioos:station:DISL:PPTA:1,2017-06-02T12:30:00Z,30.2791,-87.5561,25.38,1111122 
DISL,ioos:station:DISL:PPTA:1,2017-06-02T13:00:00Z,30.2791,-87.5561,25.84,1111122 
DISL,ioos:station:DISL:PPTA:1,2017-06-02T13:30:00Z,30.2791,-87.5561,25.77,1111122 
DISL,ioos:station:DISL:PPTA:1,2017-06-02T14:00:00Z,30.2791,-87.5561,26.08,1111122 
DISL,ioos:station:DISL:PPTA:1,2017-06-02T14:30:00Z,30.2791,-87.5561,26.16,1111122 
DISL,ioos:station:DISL:PPTA:1,2017-06-02T15:00:00Z,30.2791,-87.5561,26.38,1111122 
DISL,ioos:station:DISL:PPTA:1,2017-06-02T15:30:00Z,30.2791,-87.5561,27.12,1111122 
DISL,ioos:station:DISL:PPTA:1,2017-06-02T16:00:00Z,30.2791,-87.5561,27.19,1111122 
DISL,ioos:station:DISL:PPTA:1,2017-06-02T16:30:00Z,30.2791,-87.5561,27.6,1111122 
DISL,ioos:station:DISL:PPTA:1,2017-06-02T17:00:00Z,30.2791,-87.5561,27.58,1111122 
DISL,ioos:station:DISL:PPTA:1,2017-06-02T17:30:00Z,30.2791,-87.5561,27.75,1111122 
DISL,ioos:station:DISL:PPTA:1,2017-06-02T18:00:00Z,30.2791,-87.5561,28.26,1111122 
DISL,ioos:station:DISL:PPTA:1,2017-06-02T18:30:00Z,30.2791,-87.5561,26.89,1111122 
DISL,ioos:station:DISL:PPTA:1,2017-06-02T19:00:00Z,30.2791,-87.5561,25.99,1111122 
DISL,ioos:station:DISL:PPTA:1,2017-06-02T19:30:00Z,30.2791,-87.5561,25.86,1111122 
DISL,ioos:station:DISL:PPTA:1,2017-06-02T20:00:00Z,30.2791,-87.5561,26.79,1111122 
DISL,ioos:station:DISL:PPTA:1,2017-06-02T20:30:00Z,30.2791,-87.5561,26.41,1111122 
DISL,ioos:station:DISL:PPTA:1,2017-06-02T21:00:00Z,30.2791,-87.5561,26.19,1111122 
DISL,ioos:station:DISL:PPTA:1,2017-06-02T21:30:00Z,30.2791,-87.5561,26.46,1111122 
DISL,ioos:station:DISL:PPTA:1,2017-06-02T22:00:00Z,30.2791,-87.5561,26.53,1111122 
DISL,ioos:station:DISL:PPTA:1,2017-06-02T22:30:00Z,30.2791,-87.5561,25.78,1111122 
DISL,ioos:station:DISL:PPTA:1,2017-06-02T23:00:00Z,30.2791,-87.5561,25.64,1111122 
DISL,ioos:station:DISL:PPTA:1,2017-06-02T23:30:00Z,30.2791,-87.5561,25.61,1111122 
DISL,ioos:station:DISL:PPTA:1,2017-06-03T00:00:00Z,30.2791,-87.5561,25.19,1111122 
DISL,ioos:station:DISL:PPTA:1,2017-06-03T00:30:00Z,30.2791,-87.5561,25.16,1111122 
DISL,ioos:station:DISL:PPTA:1,2017-06-03T01:00:00Z,30.2791,-87.5561,25.26,1111122 
DISL,ioos:station:DISL:PPTA:1,2017-06-03T01:30:00Z,30.2791,-87.5561,25.36,1111122 
DISL,ioos:station:DISL:PPTA:1,2017-06-03T02:00:00Z,30.2791,-87.5561,25.43,1111122 
DISL,ioos:station:DISL:PPTA:1,2017-06-03T02:30:00Z,30.2791,-87.5561,25.53,1111122 
DISL,ioos:station:DISL:PPTA:1,2017-06-03T03:00:00Z,30.2791,-87.5561,25.7,1111122 
DISL,ioos:station:DISL:PPTA:1,2017-06-03T03:30:00Z,30.2791,-87.5561,25.43,1111122 
DISL,ioos:station:DISL:PPTA:1,2017-06-03T04:00:00Z,30.2791,-87.5561,24.34,1111122 
DISL,ioos:station:DISL:PPTA:1,2017-06-03T04:30:00Z,30.2791,-87.5561,24.01,1111122 
DISL,ioos:station:DISL:PPTA:1,2017-06-03T05:00:00Z,30.2791,-87.5561,24.22,1111122 
DISL,ioos:station:DISL:PPTA:1,2017-06-03T05:30:00Z,30.2791,-87.5561,24.29,1111122 
DISL,ioos:station:DISL:PPTA:1,2017-06-03T06:00:00Z,30.2791,-87.5561,24.26,1111122 
DISL,ioos:station:DISL:PPTA:1,2017-06-03T06:30:00Z,30.2791,-87.5561,24.19,1111122 
DISL,ioos:station:DISL:PPTA:1,2017-06-03T07:00:00Z,30.2791,-87.5561,24.5,1111122 
DISL,ioos:station:DISL:PPTA:1,2017-06-03T07:30:00Z,30.2791,-87.5561,24.46,1111122 
DISL,ioos:station:DISL:PPTA:1,2017-06-03T08:00:00Z,30.2791,-87.5561,24.53,1111122 
DISL,ioos:station:DISL:PPTA:1,2017-06-03T08:30:00Z,30.2791,-87.5561,24.6,1111122 
DISL,ioos:station:DISL:PPTA:1,2017-06-03T09:00:00Z,30.2791,-87.5561,24.8,1111122 
DISL,ioos:station:DISL:PPTA:1,2017-06-03T09:30:00Z,30.2791,-87.5561,25.01,1111122 
DISL,ioos:station:DISL:PPTA:1,2017-06-03T10:00:00Z,30.2791,-87.5561,25.21,1111122 
DISL,ioos:station:DISL:PPTA:1,2017-06-03T10:30:00Z,30.2791,-87.5561,25.59,1111122 
DISL,ioos:station:DISL:PPTA:1,2017-06-03T11:00:00Z,30.2791,-87.5561,25.25,1111122 
DISL,ioos:station:DISL:PPTA:1,2017-06-03T11:30:00Z,30.2791,-87.5561,25.14,1111122 
DISL,ioos:station:DISL:PPTA:1,2017-06-03T12:00:00Z,30.2791,-87.5561,25.31,1111122 
DISL,ioos:station:DISL:PPTA:1,2017-06-03T12:30:00Z,30.2791,-87.5561,25.42,1111122 
DISL,ioos:station:DISL:PPTA:1,2017-06-03T13:00:00Z,30.2791,-87.5561,25.74,1111122 
DISL,ioos:station:DISL:PPTA:1,2017-06-03T13:30:00Z,30.2791,-87.5561,25.97,1111122 
DISL,ioos:station:DISL:PPTA:1,2017-06-03T14:00:00Z,30.2791,-87.5561,25.87,1111122 
DISL,ioos:station:DISL:PPTA:1,2017-06-03T14:30:00Z,30.2791,-87.5561,26.01,1111122 
DISL,ioos:station:DISL:PPTA:1,2017-06-03T15:00:00Z,30.2791,-87.5561,25.83,1111122 
DISL,ioos:station:DISL:PPTA:1,2017-06-03T15:30:00Z,30.2791,-87.5561,26.47,1111122 
DISL,ioos:station:DISL:PPTA:1,2017-06-03T16:00:00Z,30.2791,-87.5561,26.32,1111122 
DISL,ioos:station:DISL:PPTA:1,2017-06-03T16:30:00Z,30.2791,-87.5561,26.27,1111122 
DISL,ioos:station:DISL:PPTA:1,2017-06-03T17:00:00Z,30.2791,-87.5561,26.64,1111122 
DISL,ioos:station:DISL:PPTA:1,2017-06-03T17:30:00Z,30.2791,-87.5561,26.2,1111122 
DISL,ioos:station:DISL:PPTA:1,2017-06-03T18:00:00Z,30.2791,-87.5561,26.61,1111122 
DISL,ioos:station:DISL:PPTA:1,2017-06-03T18:30:00Z,30.2791,-87.5561,27.02,1111122 
DISL,ioos:station:DISL:PPTA:1,2017-06-03T19:00:00Z,30.2791,-87.5561,27.19,1111122 
DISL,ioos:station:DISL:PPTA:1,2017-06-03T19:30:00Z,30.2791,-87.5561,27.29,1111122 
DISL,ioos:station:DISL:PPTA:1,2017-06-03T20:00:00Z,30.2791,-87.5561,26.1,1111122 
DISL,ioos:station:DISL:PPTA:1,2017-06-03T20:30:00Z,30.2791,-87.5561,26.2,1111122 
DISL,ioos:station:DISL:PPTA:1,2017-06-03T21:00:00Z,30.2791,-87.5561,26.62,1111122 
DISL,ioos:station:DISL:PPTA:1,2017-06-03T21:30:00Z,30.2791,-87.5561,26.63,1111122 
DISL,ioos:station:DISL:PPTA:1,2017-06-03T22:00:00Z,30.2791,-87.5561,26.67,1111122 
DISL,ioos:station:DISL:PPTA:1,2017-06-03T22:30:00Z,30.2791,-87.5561,26.43,1111122 
DISL,ioos:station:DISL:PPTA:1,2017-06-03T23:00:00Z,30.2791,-87.5561,26.26,1111122 
DISL,ioos:station:DISL:PPTA:1,2017-06-03T23:30:00Z,30.2791,-87.5561,25.85,1111122 
DISL,ioos:station:DISL:PPTA:1,2017-06-04T00:00:00Z,30.2791,-87.5561,25.32,1111122 
DISL,ioos:station:DISL:PPTA:1,2017-06-04T00:30:00Z,30.2791,-87.5561,25.15,1111122 
DISL,ioos:station:DISL:PPTA:1,2017-06-04T01:00:00Z,30.2791,-87.5561,25.19,1111122 
DISL,ioos:station:DISL:PPTA:1,2017-06-04T01:30:00Z,30.2791,-87.5561,24.58,1111122 
DISL,ioos:station:DISL:PPTA:1,2017-06-04T02:00:00Z,30.2791,-87.5561,24.31,1111122 
DISL,ioos:station:DISL:PPTA:1,2017-06-04T02:30:00Z,30.2791,-87.5561,24.32,1111122 
DISL,ioos:station:DISL:PPTA:1,2017-06-04T03:00:00Z,30.2791,-87.5561,24.39,1111122 
DISL,ioos:station:DISL:PPTA:1,2017-06-04T03:30:00Z,30.2791,-87.5561,23.54,1111122 
DISL,ioos:station:DISL:PPTA:1,2017-06-04T04:00:00Z,30.2791,-87.5561,23.06,1111122 
DISL,ioos:station:DISL:PPTA:1,2017-06-04T04:30:00Z,30.2791,-87.5561,23.17,1111122 
DISL,ioos:station:DISL:PPTA:1,2017-06-04T05:00:00Z,30.2791,-87.5561,23.31,1111122 
DISL,ioos:station:DISL:PPTA:1,2017-06-04T05:30:00Z,30.2791,-87.5561,23.25,1111122 
DISL,ioos:station:DISL:PPTA:1,2017-06-04T06:00:00Z,30.2791,-87.5561,23.76,1111122 
DISL,ioos:station:DISL:PPTA:1,2017-06-04T06:30:00Z,30.2791,-87.5561,23.89,1111122 
DISL,ioos:station:DISL:PPTA:1,2017-06-04T07:00:00Z,30.2791,-87.5561,24.1,1111122 
DISL,ioos:station:DISL:PPTA:1,2017-06-04T07:30:00Z,30.2791,-87.5561,24.33,1111122 
DISL,ioos:station:DISL:PPTA:1,2017-06-04T08:00:00Z,30.2791,-87.5561,24.46,1111122 
DISL,ioos:station:DISL:PPTA:1,2017-06-04T08:30:00Z,30.2791,-87.5561,24.63,1111122 
DISL,ioos:station:DISL:PPTA:1,2017-06-04T09:00:00Z,30.2791,-87.5561,24.67,1111122 
DISL,ioos:station:DISL:PPTA:1,2017-06-04T09:30:00Z,30.2791,-87.5561,24.67,1111122 
DISL,ioos:station:DISL:PPTA:1,2017-06-04T10:00:00Z,30.2791,-87.5561,24.43,1111122 
DISL,ioos:station:DISL:PPTA:1,2017-06-04T10:30:00Z,30.2791,-87.5561,24.67,1111122 
DISL,ioos:station:DISL:PPTA:1,2017-06-04T11:00:00Z,30.2791,-87.5561,24.39,1111122 
DISL,ioos:station:DISL:PPTA:1,2017-06-04T11:30:00Z,30.2791,-87.5561,24.46,1111122 
DISL,ioos:station:DISL:PPTA:1,2017-06-04T12:00:00Z,30.2791,-87.5561,24.43,1111122 
DISL,ioos:station:DISL:PPTA:1,2017-06-04T12:30:00Z,30.2791,-87.5561,24.6,1111122 
DISL,ioos:station:DISL:PPTA:1,2017-06-04T13:00:00Z,30.2791,-87.5561,24.94,1111122 
DISL,ioos:station:DISL:PPTA:1,2017-06-04T13:30:00Z,30.2791,-87.5561,25.4,1111122 
DISL,ioos:station:DISL:PPTA:1,2017-06-04T14:00:00Z,30.2791,-87.5561,25.6,1111122 
DISL,ioos:station:DISL:PPTA:1,2017-06-04T14:30:00Z,30.2791,-87.5561,25.83,1111122 
DISL,ioos:station:DISL:PPTA:1,2017-06-04T15:00:00Z,30.2791,-87.5561,25.66,1111122 
DISL,ioos:station:DISL:PPTA:1,2017-06-04T15:30:00Z,30.2791,-87.5561,25.99,1111122 
DISL,ioos:station:DISL:PPTA:1,2017-06-04T16:00:00Z,30.2791,-87.5561,26.02,1111122 
DISL,ioos:station:DISL:PPTA:1,2017-06-04T16:30:00Z,30.2791,-87.5561,26.6,1111122 
DISL,ioos:station:DISL:PPTA:1,2017-06-04T17:00:00Z,30.2791,-87.5561,27.12,1111122 
DISL,ioos:station:DISL:PPTA:1,2017-06-04T17:30:00Z,30.2791,-87.5561,27.05,1111122 
DISL,ioos:station:DISL:PPTA:1,2017-06-04T18:00:00Z,30.2791,-87.5561,27.36,1111122 
DISL,ioos:station:DISL:PPTA:1,2017-06-04T18:30:00Z,30.2791,-87.5561,27.16,1111122 
DISL,ioos:station:DISL:PPTA:1,2017-06-04T19:00:00Z,30.2791,-87.5561,27.8,1111122 
DISL,ioos:station:DISL:PPTA:1,2017-06-04T19:30:00Z,30.2791,-87.5561,27.53,1111122 
DISL,ioos:station:DISL:PPTA:1,2017-06-04T20:00:00Z,30.2791,-87.5561,28.31,1111122 
DISL,ioos:station:DISL:PPTA:1,2017-06-04T20:30:00Z,30.2791,-87.5561,28.42,1111122 
DISL,ioos:station:DISL:PPTA:1,2017-06-04T21:00:00Z,30.2791,-87.5561,27.87,1111122 
DISL,ioos:station:DISL:PPTA:1,2017-06-04T21:30:00Z,30.2791,-87.5561,28.31,1111122 
DISL,ioos:station:DISL:PPTA:1,2017-06-04T22:00:00Z,30.2791,-87.5561,27.46,1111122 
DISL,ioos:station:DISL:PPTA:1,2017-06-04T22:30:00Z,30.2791,-87.5561,27.51,1111122 
DISL,ioos:station:DISL:PPTA:1,2017-06-04T23:00:00Z,30.2791,-87.5561,27.21,1111122 
DISL,ioos:station:DISL:PPTA:1,2017-06-04T23:30:00Z,30.2791,-87.5561,26.84,1111122 
DISL,ioos:station:DISL:PPTA:1,2017-06-05T00:00:00Z,30.2791,-87.5561,26.8,1111122 
DISL,ioos:station:DISL:PPTA:1,2017-06-05T00:30:00Z,30.2791,-87.5561,26.77,1111122 
DISL,ioos:station:DISL:PPTA:1,2017-06-05T01:00:00Z,30.2791,-87.5561,26.57,1111122 
DISL,ioos:station:DISL:PPTA:1,2017-06-05T01:30:00Z,30.2791,-87.5561,26.58,1111122 
DISL,ioos:station:DISL:PPTA:1,2017-06-05T02:00:00Z,30.2791,-87.5561,26.55,1111122 
DISL,ioos:station:DISL:PPTA:1,2017-06-05T02:30:00Z,30.2791,-87.5561,26.38,1111122 
DISL,ioos:station:DISL:PPTA:1,2017-06-05T03:00:00Z,30.2791,-87.5561,26.38,1111122 
DISL,ioos:station:DISL:PPTA:1,2017-06-05T03:30:00Z,30.2791,-87.5561,26.31,1111122 
DISL,ioos:station:DISL:PPTA:1,2017-06-05T04:00:00Z,30.2791,-87.5561,26.35,1111122 
DISL,ioos:station:DISL:PPTA:1,2017-06-05T04:30:00Z,30.2791,-87.5561,26.21,1111122 
DISL,ioos:station:DISL:PPTA:1,2017-06-05T05:00:00Z,30.2791,-87.5561,26.28,1111122 
DISL,ioos:station:DISL:PPTA:1,2017-06-05T05:30:00Z,30.2791,-87.5561,26.28,1111122 
DISL,ioos:station:DISL:PPTA:1,2017-06-05T06:00:00Z,30.2791,-87.5561,26.18,1111122 
DISL,ioos:station:DISL:PPTA:1,2017-06-05T06:30:00Z,30.2791,-87.5561,26.08,1111122 
DISL,ioos:station:DISL:PPTA:1,2017-06-05T07:00:00Z,30.2791,-87.5561,26.21,1111122 
DISL,ioos:station:DISL:PPTA:1,2017-06-05T07:30:00Z,30.2791,-87.5561,26.01,1111122 
DISL,ioos:station:DISL:PPTA:1,2017-06-05T08:00:00Z,30.2791,-87.5561,26.21,1111122 
DISL,ioos:station:DISL:PPTA:1,2017-06-05T08:30:00Z,30.2791,-87.5561,26.14,1111122 
DISL,ioos:station:DISL:PPTA:1,2017-06-05T09:00:00Z,30.2791,-87.5561,26.11,1111122 
DISL,ioos:station:DISL:PPTA:1,2017-06-05T09:30:00Z,30.2791,-87.5561,26.11,1111122 
DISL,ioos:station:DISL:PPTA:1,2017-06-05T10:00:00Z,30.2791,-87.5561,26.11,1111122 
DISL,ioos:station:DISL:PPTA:1,2017-06-05T10:30:00Z,30.2791,-87.5561,26.21,1111122 
DISL,ioos:station:DISL:PPTA:1,2017-06-05T11:00:00Z,30.2791,-87.5561,26.18,1111122 
DISL,ioos:station:DISL:PPTA:1,2017-06-05T11:30:00Z,30.2791,-87.5561,26.31,1111122 
DISL,ioos:station:DISL:PPTA:1,2017-06-05T12:00:00Z,30.2791,-87.5561,26.14,1111122 
DISL,ioos:station:DISL:PPTA:1,2017-06-05T12:30:00Z,30.2791,-87.5561,26.28,1111122 
DISL,ioos:station:DISL:PPTA:1,2017-06-05T13:00:00Z,30.2791,-87.5561,25.87,1111122 
DISL,ioos:station:DISL:PPTA:1,2017-06-05T13:30:00Z,30.2791,-87.5561,25.97,1111122 
DISL,ioos:station:DISL:PPTA:1,2017-06-05T14:00:00Z,30.2791,-87.5561,26.08,1111122 
DISL,ioos:station:DISL:PPTA:1,2017-06-05T14:30:00Z,30.2791,-87.5561,25.79,1111122 
DISL,ioos:station:DISL:PPTA:1,2017-06-05T15:00:00Z,30.2791,-87.5561,24.81,1111122 
DISL,ioos:station:DISL:PPTA:1,2017-06-05T15:30:00Z,30.2791,-87.5561,25.6,1111122 
DISL,ioos:station:DISL:PPTA:1,2017-06-05T16:00:00Z,30.2791,-87.5561,26.79,1111122 
DISL,ioos:station:DISL:PPTA:1,2017-06-05T16:30:00Z,30.2791,-87.5561,26.4,1111122 
DISL,ioos:station:DISL:PPTA:1,2017-06-05T17:00:00Z,30.2791,-87.5561,26.6,1111122 
DISL,ioos:station:DISL:PPTA:1,2017-06-05T17:30:00Z,30.2791,-87.5561,26.63,1111122 
DISL,ioos:station:DISL:PPTA:1,2017-06-05T18:00:00Z,30.2791,-87.5561,27.19,1111122 
DISL,ioos:station:DISL:PPTA:1,2017-06-05T18:30:00Z,30.2791,-87.5561,28.01,1111122 
DISL,ioos:station:DISL:PPTA:1,2017-06-05T19:00:00Z,30.2791,-87.5561,27.9,1111122 
DISL,ioos:station:DISL:PPTA:1,2017-06-05T19:30:00Z,30.2791,-87.5561,28.04,1111122 
DISL,ioos:station:DISL:PPTA:1,2017-06-05T20:00:00Z,30.2791,-87.5561,27.97,1111122 
DISL,ioos:station:DISL:PPTA:1,2017-06-05T20:30:00Z,30.2791,-87.5561,27.94,1111122 
DISL,ioos:station:DISL:PPTA:1,2017-06-05T21:00:00Z,30.2791,-87.5561,27.43,1111122 
DISL,ioos:station:DISL:PPTA:1,2017-06-05T21:30:00Z,30.2791,-87.5561,27.26,1111122 
DISL,ioos:station:DISL:PPTA:1,2017-06-05T22:00:00Z,30.2791,-87.5561,27.77,1111122 
DISL,ioos:station:DISL:PPTA:1,2017-06-05T22:30:00Z,30.2791,-87.5561,27.17,1111122 
DISL,ioos:station:DISL:PPTA:1,2017-06-05T23:00:00Z,30.2791,-87.5561,26.77,1111122 
DISL,ioos:station:DISL:PPTA:1,2017-06-05T23:30:00Z,30.2791,-87.5561,26.67,1111122 
DISL,ioos:station:DISL:PPTA:1,2017-06-06T00:00:00Z,30.2791,-87.5561,26.5,1111122 
DISL,ioos:station:DISL:PPTA:1,2017-06-06T00:30:00Z,30.2791,-87.5561,26.57,1111122 
DISL,ioos:station:DISL:PPTA:1,2017-06-06T01:00:00Z,30.2791,-87.5561,26.45,1111122 
DISL,ioos:station:DISL:PPTA:1,2017-06-06T01:30:00Z,30.2791,-87.5561,26.35,1111122 
DISL,ioos:station:DISL:PPTA:1,2017-06-06T02:00:00Z,30.2791,-87.5561,26.21,1111122 
DISL,ioos:station:DISL:PPTA:1,2017-06-06T02:30:00Z,30.2791,-87.5561,26.21,1111122 
DISL,ioos:station:DISL:PPTA:1,2017-06-06T03:00:00Z,30.2791,-87.5561,26.08,1111122 
DISL,ioos:station:DISL:PPTA:1,2017-06-06T03:30:00Z,30.2791,-87.5561,26.28,1111122 
DISL,ioos:station:DISL:PPTA:1,2017-06-06T04:00:00Z,30.2791,-87.5561,26.25,1111122 
DISL,ioos:station:DISL:PPTA:1,2017-06-06T04:30:00Z,30.2791,-87.5561,26.14,1111122 
DISL,ioos:station:DISL:PPTA:1,2017-06-06T05:00:00Z,30.2791,-87.5561,26.25,1111122 
DISL,ioos:station:DISL:PPTA:1,2017-06-06T05:30:00Z,30.2791,-87.5561,26.08,1111122 
DISL,ioos:station:DISL:PPTA:1,2017-06-06T06:00:00Z,30.2791,-87.5561,26.35,1111122 
DISL,ioos:station:DISL:PPTA:1,2017-06-06T06:30:00Z,30.2791,-87.5561,26.11,1111122 
DISL,ioos:station:DISL:PPTA:1,2017-06-06T07:00:00Z,30.2791,-87.5561,26.14,1111122 
DISL,ioos:station:DISL:PPTA:1,2017-06-06T07:30:00Z,30.2791,-87.5561,25.6,1111122 
DISL,ioos:station:DISL:PPTA:1,2017-06-06T08:00:00Z,30.2791,-87.5561,25.13,1111122 
DISL,ioos:station:DISL:PPTA:1,2017-06-06T08:30:00Z,30.2791,-87.5561,23.85,1111122 
DISL,ioos:station:DISL:PPTA:1,2017-06-06T09:00:00Z,30.2791,-87.5561,24.32,1111122 
DISL,ioos:station:DISL:PPTA:1,2017-06-06T09:30:00Z,30.2791,-87.5561,24.39,1111122 
DISL,ioos:station:DISL:PPTA:1,2017-06-06T10:00:00Z,30.2791,-87.5561,24.19,1111122 
DISL,ioos:station:DISL:PPTA:1,2017-06-06T10:30:00Z,30.2791,-87.5561,24.39,1111122 
DISL,ioos:station:DISL:PPTA:1,2017-06-06T11:00:00Z,30.2791,-87.5561,24.5,1111122 
DISL,ioos:station:DISL:PPTA:1,2017-06-06T11:30:00Z,30.2791,-87.5561,24.36,1111122 
DISL,ioos:station:DISL:PPTA:1,2017-06-06T12:00:00Z,30.2791,-87.5561,24.39,1111122 
DISL,ioos:station:DISL:PPTA:1,2017-06-06T12:30:00Z,30.2791,-87.5561,24.56,1111122 
DISL,ioos:station:DISL:PPTA:1,2017-06-06T13:00:00Z,30.2791,-87.5561,24.87,1111122 
DISL,ioos:station:DISL:PPTA:1,2017-06-06T13:30:00Z,30.2791,-87.5561,25.11,1111122 
DISL,ioos:station:DISL:PPTA:1,2017-06-06T14:00:00Z,30.2791,-87.5561,25.14,1111122 
DISL,ioos:station:DISL:PPTA:1,2017-06-06T14:30:00Z,30.2791,-87.5561,25.21,1111122 
DISL,ioos:station:DISL:PPTA:1,2017-06-06T15:00:00Z,30.2791,-87.5561,25.68,1111122 
DISL,ioos:station:DISL:PPTA:1,2017-06-06T15:30:00Z,30.2791,-87.5561,25.53,1111122 
DISL,ioos:station:DISL:PPTA:1,2017-06-06T16:00:00Z,30.2791,-87.5561,26.14,1111122 
DISL,ioos:station:DISL:PPTA:1,2017-06-06T16:30:00Z,30.2791,-87.5561,25.84,1111122 
DISL,ioos:station:DISL:PPTA:1,2017-06-06T17:00:00Z,30.2791,-87.5561,25.39,1111122 
DISL,ioos:station:DISL:PPTA:1,2017-06-06T17:30:00Z,30.2791,-87.5561,25.46,1111122 
DISL,ioos:station:DISL:PPTA:1,2017-06-06T18:00:00Z,30.2791,-87.5561,25.87,1111122 
DISL,ioos:station:DISL:PPTA:1,2017-06-06T18:30:00Z,30.2791,-87.5561,25.53,1111122 
DISL,ioos:station:DISL:PPTA:1,2017-06-06T19:00:00Z,30.2791,-87.5561,25.56,1111122 
DISL,ioos:station:DISL:PPTA:1,2017-06-06T19:30:00Z,30.2791,-87.5561,25.43,1111122 
DISL,ioos:station:DISL:PPTA:1,2017-06-06T20:00:00Z,30.2791,-87.5561,24.95,1111122 
DISL,ioos:station:DISL:PPTA:1,2017-06-06T20:30:00Z,30.2791,-87.5561,25.1,1111122 
DISL,ioos:station:DISL:PPTA:1,2017-06-06T21:00:00Z,30.2791,-87.5561,25.76,1111122 
DISL,ioos:station:DISL:PPTA:1,2017-06-06T21:30:00Z,30.2791,-87.5561,25.69,1111122 
DISL,ioos:station:DISL:PPTA:1,2017-06-06T22:00:00Z,30.2791,-87.5561,25.81,1111122 
DISL,ioos:station:DISL:PPTA:1,2017-06-06T22:30:00Z,30.2791,-87.5561,26.08,1111122 
DISL,ioos:station:DISL:PPTA:1,2017-06-06T23:00:00Z,30.2791,-87.5561,26.62,1111122 
DISL,ioos:station:DISL:PPTA:1,2017-06-06T23:30:00Z,30.2791,-87.5561,25.97,1111122 